Preview of NWS' New Version of Forecast
This preview is not operational and should not be used for support decisions.

Regional Weather Roundup (RWR)

Issued by National Weather Service (NWS)

                            
000
ASUS45 KCYS 220410
RWRWY 

WYOMING REGIONAL WEATHER ROUNDUP
NATIONAL WEATHER SERVICE CHEYENNE WY
1000 PM MDT SUN APR 21 2019

NOTE:  "FAIR" INDICATES FEW OR NO CLOUDS BELOW 12,000 FEET
WITH NO SIGNIFICANT WEATHER AND/OR OBSTRUCTIONS TO VISIBILITY.

WYZ001-220500-
YELLOWSTONE NATIONAL PARK
  
CITY           SKY/WX    TMP DP  RH WIND       PRES   REMARKS
LK YELLOWSTONE   N/A     32  24  72 CALM      30.17R                  
W YELLOWSTONE  NOT AVBL                                               

$$
WYZ002>013-054>058-071-098>099-220500-
NORTHERN WYOMING
  
CITY           SKY/WX    TMP DP  RH WIND       PRES   REMARKS
JACKSON        CLOUDY    38  35  89 NE16      30.08R WCI  29          
CODY           LGT RAIN  38  34  85 NW9       30.23  WCI  31          
GREYBULL       LGT RAIN  44  39  82 NW9       30.17R                  
WORLAND        CLOUDY    42  40  92 W8        30.19R                  
SHERIDAN       LGT RAIN  43  41  93 N6        30.23R                  
BUFFALO        LGT RAIN  40  39  97 N8        30.22R FOG     WCI  34  
GILLETTE       CLOUDY    41  40  96 N9        30.21R                  
HULETT         CLOUDY    41  41 100 NE5       30.21                   
NEWCASTLE      LGT RAIN  41  39  93 NW8       30.17                   

$$
WYZ014>020-022>026-101>103-220500-
CENTRAL WYOMING
  
CITY           SKY/WX    TMP DP  RH WIND       PRES   REMARKS
BIG PINEY      LGT RAIN  38  35  89 NE6       30.12R FOG     WCI  33  
PINEDALE       RAIN      37  36  93 SW3       30.11                   
DUBOIS         CLOUDY    32  32 100 SE10G16   30.15  WCI  24          
LANDER         LGT RAIN  37  35  92 SW3       30.19R                  
RIVERTON       CLOUDY    39  35  86 NE5       30.19R                  
CASPER         LGT RAIN  40  40 100 NE9       30.18R FOG     WCI  34  
DOUGLAS        LGT RAIN  41  41 100 N8        30.17R                  

$$
WYZ021-027>030-104>119-220500-
SOUTHERN WYOMING
  
CITY           SKY/WX    TMP DP  RH WIND       PRES   REMARKS
EVANSTON       CLOUDY    38  35  89 N10       30.08R WCI  31          
KEMMERER       LGT RAIN  36  34  93 E12G20    30.12  WCI  27          
ROCK SPRINGS   CLOUDY    36  33  89 NE25G35   30.09R WCI  24          
DIXON          FAIR      44  34  67 NE16G22   30.07S                  
RAWLINS        RAIN      37  35  92 N6        30.14R WCI  32          
SARATOGA       LGT RAIN  37  37 100 SW3       30.12S                  
LARAMIE        LGT RAIN  38  37  97 E9        30.13R FOG     WCI  31  
CHEYENNE       CLOUDY    41  41 100 N17G24    30.11R FOG              
TORRINGTON     LGT RAIN  43  42  97 NE13G20   30.12R                  
PINE BLUFFS    CLOUDY    43  41  93 N13       30.10R                  

$$